Regional Weather Roundup
Issued by NWS

Home | Current Version | Previous Version | Graphics & Text | Print | Product List | Glossary On
Versions: 1 2 3 4 5 6 7 8 9 10 11 12 13 14 15 16 17 18 19 20 21 22 23 24 25 26 27 28 29 30 31 32 33 34 35 36 37 38 39 40 41 42 43 44 45 46 47 48 49 50
000
ASUS43 KFSD 110910
RWRSD

WEATHER ROUNDUP FOR SOUTH DAKOTA
NATIONAL WEATHER SERVICE SIOUX FALLS SD
300 AM CST SUN DEC 11 2016

NOTE: "FAIR" INDICATES FEW OR NO CLOUDS BELOW 12,000 FEET WITH NO
SIGNIFICANT WEATHER AND/OR OBSTRUCTIONS TO VISIBILITY.


SDZ001>005-009-010-012>017-111000-
NORTHWEST AND NORTH CENTRAL SOUTH DAKOTA

CITY           SKY/WX    TMP DP  RH WIND       PRES   REMARKS
BUFFALO          N/A      8   3  80 W5        29.74R WCI   0
FAITH            N/A      2   0  91 NW7       29.87R WCI -11
MOBRIDGE       LGT SNOW   7   0  73 N8        29.90S WCI  -6
$$

SDZ012>016-024>037-041>051-057-063-072>074-111000-
SOUTHWEST AND SOUTH CENTRAL SOUTH DAKOTA

CITY           SKY/WX    TMP DP  RH WIND       PRES   REMARKS
RAPID CTY ARPT CLOUDY     5   1  83 NE6       29.81R WCI  -6
PIERRE         CLOUDY    10   5  80 N10       29.89R WCI  -4
CUSTER         CLOUDY    26  10  50 N5        29.70R WCI  20
ELLSWORTH AFB  CLOUDY     6   2  83 N6        29.81R WCI  -4
PHILIP         CLOUDY     8   4  83 W8        29.91R WCI  -4
PINE RIDGE     CLOUDY     7   5  91 SW5       29.82S WCI  -2
SPEARFISH      FAIR      23  12  63 W8        29.79R WCI  14
WINNER         CLOUDY    22  19  89 NW10      29.82R WCI  11
$$

SDZ004>011-016>023-039-040-111000-
NORTHEAST SOUTH DAKOTA

CITY           SKY/WX    TMP DP  RH WIND       PRES   REMARKS
ABERDEEN       LGT SNOW  11   5  77 N10       29.93S WCI  -3
WATERTOWN      LGT SNOW  10   6  84 E13G18    29.85S FOG     WCI  -5
BROOKINGS      LGT SNOW  13  10  88 E13       29.82S FOG     WCI  -2
SISSETON         N/A     11   8  88 E8        29.95F WCI  -1
$$

SDZ017-020-022-023-036>040-048>070-111000-
SOUTHEAST SOUTH DAKOTA

CITY           SKY/WX    TMP DP  RH WIND       PRES   REMARKS
SIOUX FALLS    CLOUDY    22  20  92 E15       29.80F WCI   9
HURON          LGT SNOW  17  15  92 E7        29.85S FOG     WCI   8
CHAMBERLAIN    CLOUDY    22  20  91 N5        29.83R WCI  16
MITCHELL       CLOUDY    24  21  88 SE6       29.83R WCI  17
YANKTON        MOCLDY    25  19  80 E9        29.78R WCI  15
$$

ABBREVIATIONS USED IN REMARKS
   TC - TEMPERATURE IN CELSIUS
  WCI - WIND CHILL INDEX
   HX - HEAT INDEX
  VSB - VISIBILITY





USA.gov is the U.S. government's official web portal to all federal, state and local government web resources and services.